EUS15VW LIPZ-EGPH

Flight info

Callsign EUS15VW
Flight time 2h 22m
Altitude 38000
Route ROKIB DCT SAFFA DCT ELMUR L613 HOC DCT LUL DCT RLP DCT ROTSI DCT KOTUN DCT AMAXA DCT VESAN DCT RATUK DCT SOVAT L613 LEHOC DCT ABEVI DCT INPIP
Aircraft B738/M-SDE2E3FGHIRWXY/LB1

Departure

Time 2026-05-04 15:12
Airport Venice Marco Polo Airport (LIPZ)

Arrival

Time 2026-05-04 17:35
Airport Edinburgh Airport (EGPH)
Time Latitude Longitude Altitude Speed Heading
2026-05-04 14:42 45.50656 12.34138 16 ft 0 kts 228°
2026-05-04 15:00 45.50658 12.34141 15 ft 3 kts 227°
2026-05-04 15:00 45.50678 12.34164 15 ft 4 kts 202°
2026-05-04 15:00 45.50703 12.34173 16 ft 4 kts 182°
2026-05-04 15:01 45.50714 12.34173 16 ft 0 kts 181°
2026-05-04 15:04 45.50712 12.34174 15 ft 1 kts 170°
2026-05-04 15:05 45.50708 12.34180 15 ft 1 kts 128°
2026-05-04 15:05 45.50705 12.34212 38 ft 6 kts 100°
2026-05-04 15:05 45.50675 12.34286 15 ft 11 kts 132°
2026-05-04 15:05 45.50616 12.34375 15 ft 14 kts 130°
2026-05-04 15:06 45.50600 12.34510 15 ft 15 kts 86°
2026-05-04 15:06 45.50605 12.34667 15 ft 17 kts 88°
2026-05-04 15:06 45.50656 12.34817 15 ft 18 kts 43°
2026-05-04 15:07 45.50846 12.35062 15 ft 18 kts 42°
2026-05-04 15:07 45.50935 12.35176 15 ft 14 kts 43°
2026-05-04 15:07 45.50962 12.35242 15 ft 0 kts 76°
2026-05-04 15:08 45.50965 12.35257 18 ft 3 kts 76°
2026-05-04 15:08 45.50975 12.35319 16 ft 11 kts 78°
2026-05-04 15:08 45.51007 12.35453 16 ft 18 kts 58°
2026-05-04 15:09 45.51112 12.35605 15 ft 23 kts 43°
2026-05-04 15:09 45.51228 12.35759 14 ft 23 kts 42°
2026-05-04 15:09 45.51342 12.35908 16 ft 22 kts 42°
2026-05-04 15:10 45.51563 12.36190 15 ft 21 kts 42°
2026-05-04 15:10 45.51661 12.36314 15 ft 14 kts 42°
2026-05-04 15:10 45.51691 12.36468 15 ft 8 kts 117°
2026-05-04 15:11 45.51656 12.36532 14 ft 8 kts 127°
2026-05-04 15:11 45.51614 12.36584 14 ft 8 kts 162°
2026-05-04 15:11 45.51571 12.36552 15 ft 7 kts 224°
2026-05-04 15:11 45.51526 12.36493 16 ft 13 kts 222°
2026-05-04 15:12 45.51292 12.36192 14 ft 81 kts 222°
2026-05-04 15:12 45.50716 12.35447 15 ft 140 kts 222°
2026-05-04 15:12 45.49920 12.34412 365 ft 156 kts 219°
2026-05-04 15:12 45.49139 12.33370 1037 ft 156 kts 221°
2026-05-04 15:13 45.48337 12.32336 1738 ft 157 kts 220°
2026-05-04 15:13 45.47467 12.31234 2150 ft 182 kts 221°
2026-05-04 15:13 45.46459 12.29955 2508 ft 203 kts 221°
2026-05-04 15:13 45.45393 12.28606 3031 ft 209 kts 221°
2026-05-04 15:14 45.44298 12.27220 3596 ft 212 kts 223°
2026-05-04 15:14 45.43198 12.25813 4303 ft 213 kts 223°
2026-05-04 15:14 45.42086 12.24382 5010 ft 217 kts 223°
2026-05-04 15:14 45.40967 12.22948 5785 ft 218 kts 223°
2026-05-04 15:15 45.39842 12.21507 6589 ft 218 kts 223°
2026-05-04 15:15 45.38956 12.19746 7251 ft 223 kts 252°
2026-05-04 15:15 45.38888 12.17558 8080 ft 226 kts 281°
2026-05-04 15:16 45.40683 12.13767 9617 ft 239 kts 309°
2026-05-04 15:16 45.41763 12.11949 10368 ft 241 kts 296°
2026-05-04 15:16 45.41580 12.07284 11285 ft 267 kts 243°
2026-05-04 15:17 45.40729 12.04785 11505 ft 294 kts 242°
2026-05-04 15:17 45.39130 11.98931 12157 ft 340 kts 263°
2026-05-04 15:17 45.39420 11.95545 12910 ft 354 kts 286°
2026-05-04 15:18 45.40705 11.92519 13726 ft 367 kts 311°
2026-05-04 15:18 45.42695 11.90188 14508 ft 373 kts 321°
2026-05-04 15:18 45.44811 11.88022 15354 ft 376 kts 325°
2026-05-04 15:19 45.49883 11.86198 17098 ft 384 kts 354°
2026-05-04 15:19 45.52559 11.85939 17922 ft 388 kts 355°
2026-05-04 15:19 45.57997 11.85440 19274 ft 397 kts 355°
2026-05-04 15:20 45.60769 11.85155 19913 ft 402 kts 354°
2026-05-04 15:20 45.63566 11.84851 20578 ft 405 kts 354°
2026-05-04 15:20 45.66391 11.84535 21226 ft 409 kts 354°
2026-05-04 15:20 45.69240 11.84215 21837 ft 413 kts 354°
2026-05-04 15:21 45.72113 11.83806 22437 ft 417 kts 348°
2026-05-04 15:21 45.74824 11.82395 23143 ft 414 kts 331°
2026-05-04 15:21 45.79988 11.78632 24221 ft 422 kts 332°
2026-05-04 15:22 45.82639 11.76767 24670 ft 426 kts 332°
2026-05-04 15:22 45.85319 11.74909 25186 ft 429 kts 332°
2026-05-04 15:22 45.90747 11.71165 26108 ft 437 kts 332°
2026-05-04 15:23 45.93445 11.69145 26551 ft 438 kts 324°
2026-05-04 15:23 45.95683 11.66205 26981 ft 436 kts 309°
2026-05-04 15:23 45.97703 11.62934 27447 ft 439 kts 308°
2026-05-04 15:23 45.99734 11.59646 27929 ft 441 kts 309°
2026-05-04 15:24 46.03840 11.53061 28809 ft 444 kts 309°
2026-05-04 15:24 46.08039 11.46389 29427 ft 454 kts 309°
2026-05-04 15:25 46.10170 11.43013 29877 ft 456 kts 309°
2026-05-04 15:25 46.12307 11.39626 30258 ft 458 kts 309°
2026-05-04 15:25 46.14456 11.36218 30593 ft 460 kts 309°
2026-05-04 15:26 46.18766 11.29367 31344 ft 461 kts 309°
2026-05-04 15:26 46.20884 11.25995 31859 ft 457 kts 309°
2026-05-04 15:26 46.25155 11.19182 32973 ft 453 kts 309°
2026-05-04 15:27 46.27264 11.15807 33408 ft 452 kts 309°
2026-05-04 15:27 46.31432 11.09127 34310 ft 448 kts 309°
2026-05-04 15:28 46.35582 11.02460 35107 ft 444 kts 309°
2026-05-04 15:28 46.37643 10.99143 35452 ft 443 kts 309°
2026-05-04 15:28 46.41661 10.92673 37026 ft 414 kts 308°
2026-05-04 15:29 46.43556 10.89621 37846 ft 405 kts 308°
2026-05-04 15:30 46.51207 10.77201 38102 ft 425 kts 308°
2026-05-04 15:30 46.57198 10.67455 38103 ft 437 kts 308°
2026-05-04 15:31 46.63266 10.57557 38076 ft 433 kts 308°
2026-05-04 15:32 46.73070 10.41253 38079 ft 428 kts 301°
2026-05-04 15:33 46.75777 10.33642 38091 ft 422 kts 290°
2026-05-04 15:34 46.79119 10.21737 38113 ft 423 kts 289°
2026-05-04 15:34 46.82504 10.09793 38105 ft 425 kts 289°
2026-05-04 15:35 46.85907 9.97842 38103 ft 424 kts 289°
2026-05-04 15:36 46.89305 9.85865 38072 ft 426 kts 289°
2026-05-04 15:36 46.91571 9.77841 38055 ft 427 kts 289°
2026-05-04 15:37 46.93833 9.69804 38061 ft 428 kts 289°
2026-05-04 15:37 46.96091 9.61753 38045 ft 427 kts 289°
2026-05-04 15:38 46.98345 9.53692 38018 ft 427 kts 289°
2026-05-04 15:38 47.00587 9.45645 38041 ft 427 kts 289°
2026-05-04 15:39 47.02832 9.37559 37996 ft 430 kts 289°
2026-05-04 15:40 47.06192 9.25410 38013 ft 428 kts 289°
2026-05-04 15:40 47.08422 9.17310 38001 ft 428 kts 288°
2026-05-04 15:41 47.10649 9.09195 37991 ft 429 kts 288°
2026-05-04 15:41 47.12871 9.01066 37984 ft 430 kts 288°
2026-05-04 15:42 47.15090 8.92929 37987 ft 429 kts 288°
2026-05-04 15:42 47.17242 8.84759 37975 ft 428 kts 287°
2026-05-04 15:43 47.19310 8.76575 37972 ft 427 kts 287°
2026-05-04 15:43 47.21373 8.68455 37995 ft 426 kts 287°
2026-05-04 15:44 47.23441 8.60278 37976 ft 427 kts 287°
2026-05-04 15:44 47.25504 8.52089 37994 ft 426 kts 287°
2026-05-04 15:45 47.27568 8.43893 37978 ft 427 kts 287°
2026-05-04 15:45 47.29638 8.35670 37966 ft 429 kts 287°
2026-05-04 15:46 47.31703 8.27411 37999 ft 430 kts 287°
2026-05-04 15:46 47.33761 8.19128 37989 ft 431 kts 286°
2026-05-04 15:47 47.35815 8.10831 37979 ft 432 kts 286°
2026-05-04 15:47 47.37522 8.03913 37974 ft 432 kts 286°
2026-05-04 15:48 47.39573 7.95581 37985 ft 432 kts 286°
2026-05-04 15:48 47.42631 7.83091 37995 ft 431 kts 286°
2026-05-04 15:49 47.44661 7.74765 38006 ft 430 kts 286°
2026-05-04 15:49 47.46618 7.66675 38007 ft 429 kts 284°
2026-05-04 15:50 47.48147 7.58260 38015 ft 426 kts 280°
2026-05-04 15:50 47.49515 7.49775 38027 ft 425 kts 279°
2026-05-04 15:51 47.50895 7.41263 38014 ft 425 kts 280°
2026-05-04 15:51 47.52246 7.33041 38008 ft 425 kts 280°
2026-05-04 15:52 47.53586 7.24911 38018 ft 425 kts 280°
2026-05-04 15:52 47.54963 7.16519 38022 ft 424 kts 280°
2026-05-04 15:53 47.56350 7.08027 38025 ft 424 kts 279°
2026-05-04 15:53 47.57729 6.99537 38020 ft 424 kts 279°
2026-05-04 15:54 47.59094 6.91092 38026 ft 424 kts 279°
2026-05-04 15:54 47.60460 6.82590 38025 ft 425 kts 279°
2026-05-04 15:55 47.61824 6.74059 38030 ft 425 kts 279°
2026-05-04 15:55 47.63129 6.65861 38030 ft 426 kts 279°
2026-05-04 15:56 47.64442 6.57566 38025 ft 427 kts 279°
2026-05-04 15:56 47.65795 6.48981 38022 ft 428 kts 279°
2026-05-04 15:57 47.67141 6.40395 38024 ft 427 kts 279°
2026-05-04 15:57 47.68439 6.32070 38021 ft 427 kts 279°
2026-05-04 15:58 47.70011 6.23534 38027 ft 430 kts 283°
2026-05-04 15:58 47.71835 6.15154 38024 ft 431 kts 284°
2026-05-04 15:59 47.73617 6.06961 38018 ft 431 kts 284°
2026-05-04 15:59 47.75424 5.98478 38020 ft 430 kts 283°
2026-05-04 16:00 47.77208 5.89996 38051 ft 430 kts 283°
2026-05-04 16:00 47.78982 5.81509 38037 ft 430 kts 283°
2026-05-04 16:01 47.80751 5.73016 38012 ft 430 kts 283°
2026-05-04 16:01 47.82512 5.64527 38010 ft 429 kts 283°
2026-05-04 16:02 47.84261 5.56061 38007 ft 428 kts 283°
2026-05-04 16:03 47.86873 5.43347 38018 ft 428 kts 283°
2026-05-04 16:03 47.88596 5.34926 37995 ft 428 kts 283°
2026-05-04 16:04 47.90554 5.26558 37997 ft 434 kts 292°
2026-05-04 16:04 47.94008 5.19078 37986 ft 444 kts 307°
2026-05-04 16:04 47.96091 5.15665 37986 ft 445 kts 308°
2026-05-04 16:05 48.00304 5.08891 38003 ft 446 kts 308°
2026-05-04 16:06 48.06539 4.98683 37983 ft 447 kts 308°
2026-05-04 16:07 48.14864 4.84846 37969 ft 448 kts 308°
2026-05-04 16:08 48.23165 4.70978 37986 ft 449 kts 307°
2026-05-04 16:09 48.33612 4.53427 37953 ft 451 kts 307°
2026-05-04 16:10 48.41926 4.39371 37956 ft 451 kts 307°
2026-05-04 16:11 48.50193 4.25318 37954 ft 451 kts 307°
2026-05-04 16:12 48.62548 4.04174 37944 ft 452 kts 307°
2026-05-04 16:13 48.70574 3.90351 37945 ft 452 kts 307°
2026-05-04 16:14 48.75193 3.83853 37956 ft 458 kts 320°
2026-05-04 16:14 48.80405 3.78250 37939 ft 460 kts 321°
2026-05-04 16:16 48.93415 3.64189 37958 ft 459 kts 320°
2026-05-04 16:17 49.06338 3.49922 37971 ft 459 kts 320°
2026-05-04 16:18 49.16681 3.38443 37957 ft 459 kts 320°
2026-05-04 16:19 49.29555 3.24070 37956 ft 457 kts 320°
2026-05-04 16:20 49.42361 3.09678 37962 ft 456 kts 320°
2026-05-04 16:22 49.55135 2.95227 37951 ft 456 kts 320°
2026-05-04 16:23 49.70389 2.77841 37951 ft 455 kts 320°
2026-05-04 16:25 49.85414 2.60879 37942 ft 457 kts 322°
2026-05-04 16:26 50.03540 2.40705 37943 ft 458 kts 322°
2026-05-04 16:28 50.16462 2.26169 37951 ft 458 kts 322°
2026-05-04 16:29 50.34482 2.05733 37936 ft 457 kts 322°
2026-05-04 16:31 50.46610 1.89908 37950 ft 454 kts 316°
2026-05-04 16:32 50.60682 1.70545 37963 ft 458 kts 316°
2026-05-04 16:33 50.69129 1.58893 37969 ft 458 kts 316°
2026-05-04 16:34 50.73830 1.52425 37961 ft 458 kts 316°
2026-05-04 16:35 50.84022 1.38080 37966 ft 456 kts 316°
2026-05-04 16:36 50.87895 1.32654 38002 ft 455 kts 315°
2026-05-04 16:37 50.92767 1.25874 37992 ft 455 kts 317°
2026-05-04 16:38 51.01766 1.13321 37992 ft 455 kts 316°
2026-05-04 16:39 51.14237 0.97877 37997 ft 458 kts 324°
2026-05-04 16:40 51.24769 0.86423 37987 ft 459 kts 323°
2026-05-04 16:41 51.37854 0.71808 38010 ft 459 kts 323°
2026-05-04 16:43 51.50923 0.57098 38017 ft 459 kts 323°
2026-05-04 16:43 51.58730 0.48263 38025 ft 460 kts 323°
2026-05-04 16:45 51.74374 0.30445 38039 ft 458 kts 323°
2026-05-04 16:46 51.87348 0.15548 38048 ft 457 kts 323°
2026-05-04 16:47 51.97678 0.03611 38040 ft 456 kts 323°
2026-05-04 16:48 52.08377 -0.07402 38030 ft 457 kts 332°
2026-05-04 16:49 52.19648 -0.17025 38029 ft 458 kts 331°
2026-05-04 16:50 52.30852 -0.26920 38042 ft 458 kts 330°
2026-05-04 16:51 52.39183 -0.34306 38038 ft 458 kts 330°
2026-05-04 16:52 52.50358 -0.44266 38044 ft 457 kts 330°
2026-05-04 16:53 52.58720 -0.51759 38052 ft 456 kts 330°
2026-05-04 16:54 52.69472 -0.61441 38052 ft 455 kts 330°
2026-05-04 16:55 52.86008 -0.76439 38045 ft 453 kts 330°
2026-05-04 16:56 52.99385 -0.90094 38042 ft 451 kts 326°
2026-05-04 16:57 53.07287 -0.98584 38045 ft 450 kts 327°
2026-05-04 16:58 53.17829 -1.09827 38043 ft 450 kts 327°
2026-05-04 17:00 53.33587 -1.26746 38043 ft 448 kts 327°
2026-05-04 17:01 53.46571 -1.40804 38056 ft 447 kts 327°
2026-05-04 17:02 53.56999 -1.52171 38037 ft 446 kts 327°
2026-05-04 17:03 53.64808 -1.60726 38037 ft 447 kts 327°
2026-05-04 17:03 53.72094 -1.68745 38022 ft 447 kts 327°
2026-05-04 17:04 53.82507 -1.80261 38019 ft 448 kts 327°
2026-05-04 17:05 53.92924 -1.91853 38034 ft 448 kts 327°
2026-05-04 17:06 54.00687 -2.00536 38036 ft 448 kts 326°
2026-05-04 17:07 54.07661 -2.08174 38028 ft 447 kts 328°
2026-05-04 17:07 54.13804 -2.14769 38033 ft 446 kts 328°
2026-05-04 17:08 54.21618 -2.23228 38030 ft 444 kts 328°
2026-05-04 17:09 54.26804 -2.28880 38015 ft 438 kts 327°
2026-05-04 17:09 54.29357 -2.31669 37795 ft 435 kts 327°
2026-05-04 17:09 54.31904 -2.34456 37298 ft 432 kts 328°
2026-05-04 17:10 54.36948 -2.39987 36164 ft 429 kts 328°
2026-05-04 17:10 54.44503 -2.48301 34330 ft 430 kts 328°
2026-05-04 17:11 54.47007 -2.51065 33826 ft 426 kts 328°
2026-05-04 17:11 54.49494 -2.53815 33301 ft 423 kts 327°
2026-05-04 17:11 54.54388 -2.59236 32328 ft 414 kts 328°
2026-05-04 17:12 54.56800 -2.61913 31871 ft 410 kts 327°
2026-05-04 17:12 54.61554 -2.67204 30965 ft 403 kts 328°
2026-05-04 17:13 54.68537 -2.74998 29568 ft 393 kts 327°
2026-05-04 17:14 54.75747 -2.81186 28155 ft 381 kts 337°
2026-05-04 17:14 54.78195 -2.82869 27714 ft 377 kts 337°
2026-05-04 17:14 54.82981 -2.86243 26825 ft 371 kts 336°
2026-05-04 17:15 54.85355 -2.87949 26394 ft 368 kts 336°
2026-05-04 17:15 54.90057 -2.91343 25457 ft 366 kts 336°
2026-05-04 17:16 54.94777 -2.94758 24460 ft 370 kts 336°
2026-05-04 17:16 55.01932 -2.99948 22819 ft 371 kts 335°
2026-05-04 17:17 55.04310 -3.01677 22275 ft 371 kts 335°
2026-05-04 17:17 55.11582 -3.05974 20363 ft 376 kts 352°
2026-05-04 17:18 55.14191 -3.06329 19745 ft 375 kts 354°
2026-05-04 17:18 55.19071 -3.06877 18686 ft 371 kts 354°
2026-05-04 17:19 55.24203 -3.07487 17479 ft 368 kts 353°
2026-05-04 17:19 55.29191 -3.08126 16357 ft 361 kts 353°
2026-05-04 17:20 55.34163 -3.08784 15288 ft 355 kts 353°
2026-05-04 17:20 55.39023 -3.09434 14241 ft 350 kts 353°
2026-05-04 17:20 55.41445 -3.09759 13714 ft 348 kts 353°
2026-05-04 17:21 55.46244 -3.10405 12575 ft 344 kts 353°
2026-05-04 17:21 55.50973 -3.11040 11549 ft 338 kts 352°
2026-05-04 17:22 55.53309 -3.11355 11034 ft 335 kts 352°
2026-05-04 17:22 55.55601 -3.11663 10532 ft 324 kts 352°
2026-05-04 17:23 55.61867 -3.12501 9807 ft 272 kts 352°
2026-05-04 17:23 55.63737 -3.12758 9314 ft 269 kts 352°
2026-05-04 17:23 55.67450 -3.13269 8288 ft 266 kts 351°
2026-05-04 17:24 55.69292 -3.13522 7784 ft 265 kts 351°
2026-05-04 17:24 55.74562 -3.12459 6746 ft 255 kts 19°
2026-05-04 17:25 55.76198 -3.11269 6527 ft 254 kts 19°
2026-05-04 17:25 55.79437 -3.08869 6133 ft 251 kts 19°
2026-05-04 17:26 55.82629 -3.06491 5761 ft 248 kts 18°
2026-05-04 17:26 55.87327 -3.02937 5209 ft 243 kts 19°
2026-05-04 17:27 55.90408 -3.00587 4845 ft 239 kts 21°
2026-05-04 17:27 55.93447 -2.98301 4456 ft 235 kts 19°
2026-05-04 17:28 55.96480 -2.95978 4147 ft 240 kts 19°
2026-05-04 17:29 56.01052 -2.95613 3798 ft 225 kts 323°
2026-05-04 17:29 56.04186 -3.01665 3281 ft 225 kts 279°
2026-05-04 17:30 56.04097 -3.09641 2999 ft 198 kts 260°
2026-05-04 17:31 56.03111 -3.13212 2964 ft 187 kts 245°
2026-05-04 17:31 56.01200 -3.18968 2324 ft 174 kts 243°
2026-05-04 17:32 56.00017 -3.22444 1878 ft 155 kts 243°
2026-05-04 17:33 55.98374 -3.27284 1246 ft 138 kts 243°
2026-05-04 17:33 55.97893 -3.28705 1069 ft 133 kts 242°
2026-05-04 17:34 55.96431 -3.33020 529 ft 134 kts 241°
2026-05-04 17:34 55.95947 -3.34446 316 ft 135 kts 240°
2026-05-04 17:35 55.94775 -3.37908 115 ft 37 kts 238°
2026-05-04 17:35 55.94665 -3.38027 111 ft 8 kts 150°
2026-05-04 17:35 55.94618 -3.37977 114 ft 8 kts 148°
2026-05-04 17:36 55.94591 -3.37904 114 ft 8 kts 83°
2026-05-04 17:36 55.94613 -3.37822 112 ft 7 kts 60°
2026-05-04 17:36 55.94640 -3.37742 115 ft 8 kts 59°
2026-05-04 17:36 55.94675 -3.37639 112 ft 12 kts 58°
2026-05-04 17:37 55.94727 -3.37483 115 ft 17 kts 59°
2026-05-04 17:37 55.94791 -3.37294 112 ft 18 kts 59°
2026-05-04 17:37 55.94855 -3.37108 115 ft 18 kts 59°
2026-05-04 17:37 55.94907 -3.36952 114 ft 12 kts 59°
2026-05-04 17:38 55.94925 -3.36848 115 ft 8 kts 115°
2026-05-04 17:38 55.94880 -3.36788 115 ft 8 kts 158°
2026-05-04 17:38 55.94827 -3.36778 115 ft 5 kts 179°
2026-05-04 17:38 55.94797 -3.36777 115 ft 5 kts 179°
2026-05-04 17:39 55.94724 -3.36738 115 ft 3 kts 177°
2026-05-04 17:39 55.94706 -3.36723 113 ft 3 kts 126°
2026-05-04 17:39 55.94702 -3.36676 115 ft 5 kts 92°
2026-05-04 17:40 55.94702 -3.36628 115 ft 3 kts 89°
2026-05-04 17:40 55.94702 -3.36605 115 ft 1 kts 89°
2026-05-04 17:40 55.94702 -3.36603 115 ft 0 kts 89°